Location: Unspecified
(0.0000°N, 0.0000°E)
Time: 15:31:52
(UTC+02:00)

ISS - All Passes

Search period start: 29 July 2015 00:00
Search period end: 08 August 2015 00:00
Orbit: 401 x 403 km, 51.6° (Epoch: 29 July)

Date Brightness Start Highest point End Pass type
(mag) Time Alt. Az. Time Alt. Az. Time Alt. Az.
29 Jul - 08:07:28 10° NE 08:07:43 10° NE 08:08:11 10° ENE daylight
29 Jul - 09:41:24 10° WNW 09:44:05 23° SW 09:46:43 10° S daylight
29 Jul - 21:14:35 10° SW 21:17:39 38° NW 21:20:41 10° NNE visible
30 Jul - 08:47:55 10° NW 08:51:09 70° SW 08:54:23 10° SSE daylight
30 Jul - 20:21:32 10° SSW 20:24:45 63° SE 20:27:57 10° NE daylight
31 Jul - 07:55:14 10° NNW 07:58:14 35° NE 08:01:16 10° ESE daylight
31 Jul - 19:29:16 10° S 19:31:48 21° SE 19:34:23 10° ENE daylight
31 Jul - 21:07:07 10° WNW 21:08:09 11° NW 21:09:00 10° NW visible
01 Aug - 07:03:40 10° NNE 07:05:15 13° NE 07:06:58 10° E visible
01 Aug - 08:39:15 10° W 08:41:35 18° SW 08:43:50 10° S daylight
01 Aug - 20:12:15 10° WSW 20:15:08 28° NW 20:17:58 10° N daylight
02 Aug - 07:45:27 10° NW 07:48:36 50° SW 07:51:47 10° SSE daylight
02 Aug - 19:18:57 10° SW 19:22:12 88° SE 19:25:26 10° NE daylight
03 Aug - 06:52:33 10° NNW 06:55:41 48° NE 06:58:50 10° SE visible
03 Aug - 18:26:26 10° S 18:29:15 28° SE 18:32:06 10° ENE daylight
04 Aug - 06:00:32 10° N 06:02:43 17° NE 06:04:58 10° E visible
04 Aug - 07:37:13 10° W 07:39:02 14° SW 07:40:45 10° SSW visible
04 Aug - 17:35:31 10° SE 17:36:13 11° SE 17:37:06 10° ESE daylight
04 Aug - 19:09:57 10° WSW 19:12:35 22° NW 19:15:08 10° N daylight
05 Aug - 06:42:59 10° WNW 06:46:02 36° SW 06:49:04 10° SSE visible
05 Aug - 18:16:23 10° SW 18:19:36 66° NW 18:22:49 10° NNE daylight
06 Aug - 05:49:52 10° NNW 05:53:05 67° NE 05:56:19 10° SE night (unlit)
06 Aug - 17:23:38 10° SSW 17:26:39 37° SE 17:29:42 10° ENE daylight
07 Aug - 04:57:33 10° N 05:00:06 22° NE 05:02:44 10° ESE night (unlit)
07 Aug - 06:35:36 10° WSW 06:36:27 11° SW 06:37:08 10° SW night (unlit)
07 Aug - 16:31:55 10° SSE 16:33:38 14° SE 16:35:28 10° E daylight
07 Aug - 18:07:43 10° W 18:09:58 17° NW 18:12:07 10° N daylight
